Grand Forks AFB, ND

2:21 PM CDT on July 24, 2017 (GMT -0500)
Grand Forks Air Force Base

Weather History for KRDR - April, 2014

Change the Weather History Date:

Tuesday, April 15, 2014

  Actual Average Record
Temperature  
Mean Temperature 20 °F -  
Max Temperature 30 °F 49 °F 75 °F (2015)
Min Temperature 10 °F 28 °F 10 °F (2014)
Degree Days  
Heating Degree Days 45    
Moisture  
Dew Point 9 °F    
Average Humidity 57    
Maximum Humidity 87    
Minimum Humidity 39    
Precipitation  
Precipitation 0.00 in - - ()
Sea Level Pressure  
Sea Level Pressure 30.16 in    
Wind  
Wind Speed 5 mph (SE)    
Max Wind Speed 13 mph    
Max Gust Speed -    
Visibility 10 miles    
Events      
Averages and records for this station are not official NWS values.
T = Trace of Precipitation, MM = Missing Value Source: NWS Daily Summary

Daily Weather History Graph

Daily Weather History Graph

Search for Another Location

Airport or City:

Trip Planner

Search our weather history database for the weather conditions in past years. The results will help you decide how hot, cold, wet, or windy it might be!

Date:

Astronomy

Apr. 15, 2014 Rise Set
Actual Time 6:40 AM CDT 8:19 PM CDT
Civil Twilight 6:07 AM CDT 8:52 PM CDT
Nautical Twilight 5:27 AM CDT 9:32 PM CDT
Astronomical Twilight 4:44 AM CDT 10:16 PM CDT
Moon 9:05 PM CDT (4/15) 6:48 AM CDT (4/15)
Length of Visible Light 14h 45m
Length of Day
13h 39m
Full, 100% of the Moon is Illuminated
Apr 15
Full
Apr 22
Last Quarter
Apr 29
New
May 6
First Quarter
May 14
Full

Hourly Weather History & Observations

Time (CDT) Temp. Windchill Dew Point Humidity Pressure Visibility Wind Dir Wind Speed Gust Speed Precip Events Conditions
12:58 AM 12.4 °F 4.6 °F 5.2 °F 73% 30.28 in 10.0 mi NE 4.6 mph - N/A   Clear
1:58 AM 12.6 °F - 6.4 °F 77% 30.29 in 10.0 mi NNE 2.3 mph - N/A   Clear
2:58 AM 12.2 °F - 6.4 °F 78% 30.27 in 10.0 mi East 2.3 mph - N/A   Clear
3:58 AM 12.7 °F 5.0 °F 5.9 °F 74% 30.25 in 10.0 mi East 4.6 mph - N/A   Clear
4:58 AM 11.8 °F - 5.4 °F 75% 30.25 in 10.0 mi Calm Calm - N/A   Clear
5:58 AM 10.2 °F - 7.2 °F 87% 30.24 in 10.0 mi SW 1.2 mph - N/A   Clear
6:58 AM 14.0 °F - 5.4 °F 69% 30.24 in 10.0 mi Calm Calm - N/A   Clear
7:58 AM 16.7 °F 9.6 °F 6.6 °F 65% 30.24 in 10.0 mi South 4.6 mph - N/A   Clear
8:58 AM 19.0 °F 10.0 °F 7.5 °F 61% 30.22 in 10.0 mi SSE 6.9 mph - N/A   Clear
9:58 AM 21.4 °F 11.9 °F 7.0 °F 54% 30.21 in 10.0 mi SSE 8.1 mph - N/A   Clear
10:58 AM 23.7 °F 15.6 °F 7.2 °F 49% 30.18 in 10.0 mi South 6.9 mph - N/A   Clear
11:58 AM 25.3 °F 16.7 °F 7.0 °F 46% 30.17 in 10.0 mi South 8.1 mph - N/A   Clear
12:58 PM 27.1 °F 16.9 °F 7.2 °F 43% 30.14 in 10.0 mi South 11.5 mph - N/A   Clear
1:58 PM 28.0 °F 19.3 °F 8.4 °F 44% 30.12 in 10.0 mi SSW 9.2 mph - N/A   Partly Cloudy
2:58 PM 30.4 °F 22.2 °F 8.2 °F 39% 30.09 in 10.0 mi South 9.2 mph - N/A   Clear
3:58 PM 30.6 °F 23.1 °F 8.1 °F 39% 30.09 in 10.0 mi SE 8.1 mph - N/A   Partly Cloudy
4:58 PM 30.4 °F 20.5 °F 10.2 °F 43% 30.06 in 10.0 mi ESE 12.7 mph - N/A   Partly Cloudy
5:58 PM 30.0 °F 20.0 °F 11.5 °F 46% 30.06 in 10.0 mi East 12.7 mph - N/A   Partly Cloudy
6:58 PM 29.8 °F 22.2 °F 10.2 °F 44% 30.06 in 10.0 mi ESE 8.1 mph - N/A   Mostly Cloudy
7:58 PM 29.8 °F 23.9 °F 12.4 °F 48% 30.06 in 10.0 mi East 5.8 mph - N/A   Overcast
8:58 PM 29.8 °F 23.0 °F 13.1 °F 50% 30.07 in 10.0 mi East 6.9 mph - N/A   Mostly Cloudy
9:58 PM 29.7 °F 22.8 °F 14.2 °F 53% 30.08 in 10.0 mi East 6.9 mph - N/A   Overcast
10:58 PM 29.1 °F 20.6 °F 15.4 °F 57% 30.07 in 10.0 mi East 9.2 mph - N/A   Overcast
11:58 PM 28.9 °F 19.2 °F 15.4 °F 57% 30.06 in 10.0 mi East 11.5 mph - N/A   Overcast